Flag for Bahrain Weather past 2 weeks in Manama, Bahrain

Now
84 °F

Clear.


Feels Like: 83 °F
Forecast: 80 / 91 °F
Wind: 9 mph from North

Location: Bahrain International Airport


UV Index: 7 (High)

Visibility: 10 mi


Pressure: 29.77 "Hg

Humidity: 35%

Dew point: 54 °F

Location of ManamaLocation

Historic Weather in Manama

°F

Manama temperature yesterday

Maximum temperature yesterday: 93 °F (at 1:00 PM)
Minimum temperature yesterday: 77 °F (at 5:00 AM)
Average temperature yesterday: 86 °F

Past Weeks' High & Low Weather Summary

 TemperatureHumidityPressure
High99 °F (Apr 11, 1:00 PM)83% (Apr 3, 8:00 AM)30.12 "Hg (Apr 3, 8:00 AM)
Low66 °F (Apr 7, 5:00 AM)9% (Apr 11, 12:00 PM)29.68 "Hg (Apr 2, 10:00 PM)
Average78 °F51%29.91 "Hg
* Reported Apr 2 10:00 PM — Apr 17 10:00 PM, Manama, Weather by CustomWeather, © 2014

Note: Actual official high and low records may vary slightly from our data, if they occured in-between our weather recording intervals... More about our weather records

Advertising

Historic Weather Conditions — Data for Previous 24 hours

 ConditionsComfort  
Time TempWeatherWind HumidityBarometerVisibility
10:00 PM
Apr 17
86 °FClear.8 mph31%29.80 "Hg10 mi
9:00 PM88 °FClear.7 mph29%29.80 "Hg10 mi
8:00 PM88 °FClear.6 mph35%29.80 "Hg10 mi
7:00 PM88 °FClear.6 mph29%29.77 "Hg10 mi
6:00 PM90 °FSunny.7 mph27%29.77 "Hg10 mi
5:00 PM93 °FSunny.8 mph24%29.77 "Hg10 mi
4:00 PM95 °FSunny.9 mph22%29.77 "Hg10 mi
3:00 PM77 °FSunny.10 mph42%29.77 "Hg10 mi
2:00 PM93 °FSunny.12 mph30%29.80 "Hg10 mi
1:00 PM93 °FSunny.9 mph28%29.80 "Hg10 mi
12:00 PM90 °FSunny.12 mph38%29.83 "Hg10 mi
11:00 AM91 °FSunny.10 mph34%29.83 "Hg10 mi
10:00 AM90 °FSunny.9 mph36%29.86 "Hg10 mi
9:00 AM86 °FSunny.9 mph43%29.86 "Hg10 mi
8:00 AM84 °FSunny.12 mph48%29.86 "Hg10 mi
7:00 AM82 °FSunny.8 mph55%29.83 "Hg10 mi
6:00 AM79 °FSunny.6 mph65%29.80 "Hg10 mi
5:00 AM79 °FClear.8 mph65%29.80 "Hg10 mi
4:00 AM79 °FClear.10 mph61%29.80 "Hg10 mi
3:00 AM81 °FClear.9 mph70%29.80 "Hg10 mi
2:00 AM81 °FClear.9 mph62%29.80 "Hg10 mi
1:00 AM82 °FClear.8 mph58%29.80 "Hg10 mi
12:00 AM84 °FClear.5 mph43%29.80 "Hg10 mi
11:00 PM
Apr 16
86 °FClear.3 mph33%29.83 "Hg10 mi
Weather by CustomWeather, © 2014

See weather overview